Эткиль-Янканский хребет

Russia / Khabarovsk Krai     51˚49′00″N   135˚38′16″E
temp.,
°C
wind,
m/s
gust,
m/s
humid.,
%
clouds,
%
prec.,
mm/h
press.,
hPa
HPBL,
m
29 november, sun
sun2901:00−14˚w0096100 0.3 102022
04:00−14˚sw1196100 0.5 101926
07:00−14˚wsw1196100 0.2 102032
10:00−13˚sw0191100 0.5 1020133
13:00−12˚sse1182100 0.2 1019381
16:00−13˚se1291100 0.4 1019240
19:00−14˚ssw1195100 0.1 102193
22:00−15˚sw119598 0.1 102220
30 november, mon
mon3001:00−16˚wsw119485 0.0 102120
04:00−16˚w119287 0.0 102220
07:00−17˚w118792 0.0 102223
10:00−16˚wsw117990 0.0 102276
13:00−12˚s116434 0.0 1021486
16:00−14˚sse127721 0.0 102059
19:00−17˚w11872 0.0 102220
22:00−18˚w11821 0.0 102221
1 december, tue
tue101:00−19˚w12780 0.0 102321
04:00−19˚w12780 0.0 102323
07:00−20˚w11790 0.0 102422
10:00−18˚w11720 0.0 102468
13:00−13˚sw12570 0.0 1023375
16:00−15˚s01750 0.0 102326
19:00−18˚w12810 0.0 102424
22:00−19˚w22750 0.0 102436
2 december, wed
wed201:00−19˚w22750 0.0 102353
04:00−19˚w22750 0.0 102354
07:00−20˚w227616 0.0 102234
10:00−18˚w117046 0.0 102271
13:00−13˚sw12585 0.0 1020295
16:00−14˚w11732 0.0 101941
19:00−18˚w22770 0.0 101948
22:00−18˚w22760 0.0 101939
3 december, thu
thu301:00−19˚w22760 0.0 101834
04:00−19˚w22780 0.0 101733
07:00−18˚w227435 0.0 101767
10:00−17˚w127161 0.0 101687
13:00−13˚wsw12560 0.0 1014318
16:00−14˚wsw117331 0.0 101441
19:00−15˚w127495 0.0 101473
22:00−16˚wnw127693 0.0 101525